Location: Fernhill
(41.0167°S, 175.6333°E)
Time: 10:45:46
(UTC+00:00)

Aureole 1 Rocket - Pass Details

Date: 08 November 2025
Orbit: 373 x 1173 km, 73.9° (Epoch: 09 December)

Event Time Altitude Azimuth Distance (km) Brightness Sun altitude
Rises 10:45:02 0° 200° (SSW) 3,477 8.1 -29.6°
Reaches altitude 10° 10:47:47 10° 199° (SSW) 2,394 7.0 -29.8°
Enters shadow 10:51:53 50° 195° (SSW) 890 4.1 -30.1°
